Hourly Data Report for October 06, 2016

All times are specified in Local Standard Time (LST). Add 1 hour to adjust for Daylight Saving Time where and when it is observed.

HALL BEACH A
NUNAVUT

68°46'33.000" N
81°14'33.000" W
9.10 m
2402354
71293
YUX

Download Data

Hourly Data (October 2016)
Hourly Data Report for October 6, 2016
Temp Definition
°C
Dew Point Temp Definition
°C
Rel Hum Definition
%
Wind Dir Definition
10's deg

Wind Spd Definition
km/h
Visibility Definition
km
Stn Press Definition
kPa
Hmdx Definition


Wind Chill Definition


Weather Definition


TIME
00:00 Legend Double Dagger -5.1 -6.5 90 33 30 16.1 101.51   -13 LegendNANA
01:00 Legend Double Dagger -3.9 -5.2 91 32 28 16.1 101.52   -11 LegendNANA
02:00 Legend Double Dagger -3.0 -4.6 89 32 26 16.1 101.54   -10 LegendNANA
03:00 Legend Double Dagger -2.7 -3.7 93 32 26 16.1 101.53   -10 LegendNANA
04:00 Legend Double Dagger -2.6 -3.7 92 31 22 16.1 101.49   -9 LegendNANA
05:00 Legend Double Dagger -2.1 -2.7 96 32 24 16.1 101.46   -8 LegendNANA
06:00 Legend Double Dagger -1.9 -2.7 94 33 21 16.1 101.46   -8 LegendNANA
07:00 Legend Double Dagger -1.9 -2.7 94 33 21 16.1 101.45   -8 LegendNANA
08:00 Legend Double Dagger -2.6 -4.0 90 31 30 16.1 101.45   -10 LegendNANA
09:00 Legend Double Dagger -3.4 -4.8 90 32 28 16.1 101.46   -11 LegendNANA
10:00 Legend Double Dagger -2.5 -4.1 89 32 30 16.1 101.44   -10 LegendNANA
11:00 Legend Double Dagger -2.4 -4.1 88 31 28 16.1 101.42   -9 LegendNANA
12:00 Legend Double Dagger -2.1 -4.2 85 31 26 16.1 101.43   -9 LegendNANA
13:00 Legend Double Dagger -2.0 -4.1 86 32 37 16.1 101.42   -10 LegendNANA
14:00 Legend Double Dagger -2.2 -4.2 86 32 28 16.1 101.43   -9 LegendNANA
15:00 Legend Double Dagger -1.9 -3.8 87 31 24 16.1 101.46   -8 LegendNANA
16:00 Legend Double Dagger -3.2 -4.8 89 31 21 16.1 101.47   -9 LegendNANA
17:00 Legend Double Dagger -3.6 -4.9 91 31 18 16.1 101.47   -9 LegendNANA
18:00 Legend Double Dagger -3.2 -4.2 93 29 22 16.1 101.46   -10 LegendNANA
19:00 Legend Double Dagger -3.1 -4.5 90 31 22 16.1 101.47   -9 LegendNANA
20:00 Legend Double Dagger -4.7 -6.2 89 29 13 16.1 101.51   -10 LegendNANA
21:00 Legend Double Dagger -5.7 -6.7 93 29 24 16.1 101.49   -13 LegendNANA
22:00 Legend Double Dagger -5.4 -6.5 92 29 21 16.1 101.49   -12 LegendNANA
23:00 Legend Double Dagger -3.9 -4.6 95 28 17 16.1 101.49   -10 LegendNANA

Notes on Data Quality.

Legend

  • E = Estimated
  • M = Missing
  • NA = Not Available
  • ‡ = Partner data that is not subject to review by the National Climate Archives
Date modified: